When you browse on this site, cookies collect data to enhance your experience and personalize the content and advertising you see.
Visit our Privacy Policy to learn more. By continuing to use the site, you agree to this use of cookies and data.
  • In United Kingdom
  • List of Countries
  • For 7 days
  • Water Temperature
  • Weather Map
  • Weather Widgets
  • user-avatar
    Login

    Hourly Weather Orel

    Today, 16 September, Monday

    Time Temperature Precipitation Wind Pressure Humidity
    00:00 +12°C° 0 mm 7 mps 741 mmHg 62%
    01:00 +12°C° 0 mm 7 mps 741 mmHg 61%
    02:00 +12°C° 0 mm 7 mps 740 mmHg 60%
    03:00 +12°C° 0 mm 7 mps 740 mmHg 61%
    04:00 +11°C° 0 mm 6 mps 739 mmHg 62%
    05:00 +11°C° 0 mm 6 mps 739 mmHg 64%
    06:00 +11°C° 0.1 mm 6 mps 738 mmHg 68%
    07:00 +11°C° 0.1 mm 6 mps 738 mmHg 72%
    08:00 +10°C° 0.1 mm 6 mps 738 mmHg 76%
    09:00 +11°C° 0.1 mm 7 mps 738 mmHg 75%
    10:00 +12°C° 0.1 mm 8 mps 737 mmHg 75%
    11:00 +13°C° 0.1 mm 8 mps 737 mmHg 74%
    12:00 +13°C° 0.1 mm 8 mps 737 mmHg 70%
    13:00 +15°C° 0.1 mm 9 mps 737 mmHg 66%
    14:00 +16°C° 0.1 mm 9 mps 737 mmHg 62%
    15:00 +15°C° 0.1 mm 8 mps 737 mmHg 63%
    16:00 +14°C° 0.1 mm 7 mps 737 mmHg 63%
    17:00 +14°C° 0.1 mm 6 mps 737 mmHg 64%
    18:00 +13°C° 0 mm 5 mps 737 mmHg 66%
    19:00 +12°C° 0 mm 5 mps 737 mmHg 68%
    20:00 +10°C° 0 mm 5 mps 737 mmHg 70%
    21:00 +10°C° 0 mm 5 mps 737 mmHg 70%
    22:00 +10°C° 0 mm 5 mps 737 mmHg 70%
    23:00 +9°C° 0 mm 6 mps 737 mmHg 71%

    Tomorrow, 17 September, Tuesday

    Time Temperature Precipitation Wind Pressure Humidity
    00:00 +9°C° 0 mm 6 mps 737 mmHg 72%
    01:00 +8°C° 0 mm 6 mps 737 mmHg 74%
    02:00 +8°C° 0 mm 5 mps 737 mmHg 76%
    03:00 +8°C° 0 mm 5 mps 736 mmHg 76%
    04:00 +8°C° 0 mm 5 mps 736 mmHg 77%
    05:00 +8°C° 0 mm 5 mps 736 mmHg 78%
    06:00 +8°C° 0 mm 6 mps 736 mmHg 74%
    07:00 +9°C° 0 mm 6 mps 736 mmHg 71%
    08:00 +10°C° 0 mm 7 mps 736 mmHg 67%
    09:00 +11°C° 0 mm 7 mps 736 mmHg 62%
    10:00 +12°C° 0 mm 7 mps 736 mmHg 58%
    11:00 +12°C° 0 mm 7 mps 736 mmHg 53%
    12:00 +14°C° 0.1 mm 7 mps 736 mmHg 54%
    13:00 +14°C° 0.1 mm 7 mps 735 mmHg 55%
    14:00 +14°C° 0.1 mm 6 mps 735 mmHg 56%
    15:00 +13°C° 0.2 mm 6 mps 735 mmHg 59%
    16:00 +13°C° 0.2 mm 5 mps 735 mmHg 63%
    17:00 +12°C° 0.2 mm 4 mps 734 mmHg 67%
    18:00 +11°C° 0.3 mm 4 mps 734 mmHg 70%
    19:00 +11°C° 0.3 mm 4 mps 734 mmHg 74%
    20:00 +10°C° 0.3 mm 3 mps 735 mmHg 78%
    21:00 +9°C° 0 mm 3 mps 734 mmHg 79%
    22:00 +8°C° 0 mm 4 mps 734 mmHg 81%
    23:00 +7°C° 0 mm 4 mps 734 mmHg 82%

    Day after tomorrow, 18 September, Wednesday

    Time Temperature Precipitation Wind Pressure Humidity
    00:00 +7°C° 0 mm 4 mps 734 mmHg 81%
    01:00 +6°C° 0 mm 4 mps 734 mmHg 81%
    02:00 +6°C° 0 mm 4 mps 734 mmHg 81%
    03:00 +6°C° 0.1 mm 4 mps 733 mmHg 82%
    04:00 +6°C° 0.1 mm 4 mps 733 mmHg 83%
    05:00 +6°C° 0.1 mm 4 mps 732 mmHg 84%
    06:00 +7°C° 0.2 mm 5 mps 732 mmHg 84%
    07:00 +7°C° 0.2 mm 6 mps 732 mmHg 84%
    08:00 +6°C° 0.2 mm 7 mps 732 mmHg 83%
    09:00 +6°C° 0.6 mm 7 mps 732 mmHg 81%
    10:00 +6°C° 0.6 mm 8 mps 732 mmHg 79%
    11:00 +6°C° 0.6 mm 8 mps 733 mmHg 76%
    12:00 +7°C° 0.3 mm 8 mps 733 mmHg 72%
    13:00 +8°C° 0.3 mm 9 mps 733 mmHg 68%
    14:00 +8°C° 0.3 mm 9 mps 733 mmHg 64%
    15:00 +9°C° 0.2 mm 8 mps 734 mmHg 67%
    16:00 +7°C° 0.2 mm 8 mps 734 mmHg 70%
    17:00 +6°C° 0.2 mm 7 mps 734 mmHg 73%
    18:00 +5°C° 0 mm 7 mps 735 mmHg 76%
    19:00 +5°C° 0 mm 6 mps 736 mmHg 79%
    20:00 +4°C° 0 mm 6 mps 736 mmHg 82%
    21:00 +5°C° 0 mm 5 mps 737 mmHg 84%
    22:00 +3°C° 0 mm 5 mps 737 mmHg 87%
    23:00 +3°C° 0 mm 5 mps 738 mmHg 89%

    19 September, Thursday

    Time Temperature Precipitation Wind Pressure Humidity
    00:00 +3°C° 0 mm 5 mps 738 mmHg 91%
    01:00 +3°C° 0 mm 5 mps 738 mmHg 93%
    02:00 +4°C° 0 mm 4 mps 739 mmHg 94%
    03:00 +4°C° 0 mm 4 mps 739 mmHg 95%
    04:00 +3°C° 0 mm 4 mps 739 mmHg 96%
    05:00 +3°C° 0 mm 4 mps 740 mmHg 97%
    06:00 +4°C° 0 mm 4 mps 740 mmHg 94%
    07:00 +5°C° 0 mm 4 mps 741 mmHg 92%
    08:00 +5°C° 0 mm 4 mps 741 mmHg 90%
    09:00 +6°C° 0 mm 4 mps 741 mmHg 85%
    10:00 +7°C° 0 mm 4 mps 742 mmHg 81%
    11:00 +8°C° 0 mm 4 mps 742 mmHg 77%
    12:00 +9°C° 0 mm 5 mps 742 mmHg 74%
    13:00 +10°C° 0 mm 5 mps 742 mmHg 70%
    14:00 +10°C° 0 mm 5 mps 742 mmHg 67%
    15:00 +10°C° 0.1 mm 5 mps 742 mmHg 69%
    16:00 +9°C° 0.1 mm 5 mps 742 mmHg 72%
    17:00 +10°C° 0.1 mm 4 mps 742 mmHg 74%
    18:00 +8°C° 0 mm 4 mps 742 mmHg 78%
    19:00 +7°C° 0 mm 4 mps 743 mmHg 81%
    20:00 +8°C° 0 mm 3 mps 743 mmHg 85%
    21:00 +7°C° 0 mm 3 mps 743 mmHg 87%
    22:00 +7°C° 0 mm 3 mps 743 mmHg 90%
    23:00 +5°C° 0 mm 3 mps 743 mmHg 92%

    20 September, Friday

    Time Temperature Precipitation Wind Pressure Humidity
    00:00 +5°C° 0 mm 3 mps 743 mmHg 93%
    01:00 +4°C° 0 mm 3 mps 743 mmHg 93%
    02:00 +3°C° 0 mm 3 mps 744 mmHg 94%
    03:00 +3°C° 0 mm 3 mps 744 mmHg 93%
    04:00 +2°C° 0 mm 3 mps 744 mmHg 92%
    05:00 +3°C° 0 mm 2 mps 744 mmHg 91%
    06:00 +3°C° 0 mm 3 mps 744 mmHg 85%
    07:00 +4°C° 0 mm 3 mps 745 mmHg 79%
    08:00 +5°C° 0 mm 3 mps 745 mmHg 72%
    09:00 +7°C° 0 mm 3 mps 745 mmHg 67%
    10:00 +8°C° 0 mm 3 mps 745 mmHg 61%
    11:00 +10°C° 0 mm 4 mps 745 mmHg 55%
    12:00 +10°C° 0.1 mm 4 mps 745 mmHg 54%
    13:00 +10°C° 0.1 mm 4 mps 745 mmHg 52%
    14:00 +11°C° 0.1 mm 4 mps 745 mmHg 51%
    15:00 +10°C° 0.1 mm 3 mps 745 mmHg 56%
    16:00 +9°C° 0.1 mm 3 mps 745 mmHg 61%
    17:00 +8°C° 0.1 mm 2 mps 746 mmHg 66%
    18:00 +7°C° 0 mm 2 mps 746 mmHg 71%
    19:00 +6°C° 0 mm 2 mps 747 mmHg 75%
    20:00 +4°C° 0 mm 3 mps 747 mmHg 79%
    21:00 +3°C° 0 mm 3 mps 747 mmHg 80%
    22:00 +3°C° 0 mm 3 mps 748 mmHg 81%
    23:00 +2°C° 0 mm 3 mps 748 mmHg 82%

    21 September, Saturday

    Time Temperature Precipitation Wind Pressure Humidity
    00:00 +2°C° 0 mm 3 mps 748 mmHg 84%
    01:00 +1°C° 0 mm 3 mps 748 mmHg 85%
    02:00 +1°C° 0 mm 3 mps 749 mmHg 86%
    03:00 +2°C° 0 mm 2 mps 749 mmHg 87%
    04:00 +1°C° 0 mm 2 mps 749 mmHg 88%
    05:00 +1°C° 0 mm 2 mps 749 mmHg 89%
    06:00 +1°C° 0 mm 3 mps 750 mmHg 82%
    07:00 +2°C° 0 mm 3 mps 750 mmHg 75%
    08:00 +4°C° 0 mm 3 mps 750 mmHg 68%
    09:00 +5°C° 0 mm 3 mps 751 mmHg 62%
    10:00 +7°C° 0 mm 4 mps 751 mmHg 55%
    11:00 +8°C° 0 mm 4 mps 751 mmHg 48%
    12:00 +10°C° 0 mm 4 mps 750 mmHg 48%
    13:00 +9°C° 0 mm 5 mps 750 mmHg 47%
    14:00 +9°C° 0 mm 5 mps 749 mmHg 46%
    15:00 +10°C° 0 mm 4 mps 749 mmHg 50%
    16:00 +8°C° 0 mm 4 mps 749 mmHg 53%
    17:00 +8°C° 0 mm 3 mps 749 mmHg 56%
    18:00 +8°C° 0 mm 3 mps 749 mmHg 58%
    19:00 +7°C° 0 mm 3 mps 749 mmHg 60%
    20:00 +5°C° 0 mm 3 mps 749 mmHg 62%
    21:00 +5°C° 0 mm 4 mps 749 mmHg 64%
    22:00 +5°C° 0 mm 5 mps 748 mmHg 67%
    23:00 +5°C° 0 mm 5 mps 748 mmHg 69%
    Show more